Flag for U.S.A. Weather past 2 weeks in Corpus Christi, Texas, U.S.A.

Now
77 °F

Cloudy.


Feels Like: 79 °F
Forecast: 73 / 83 °F
Wind: 20 mph from Southeast

Location: Corpus Christi International Airport

Current Time: May 5, 2015 at 9:21:38 AM

Latest Report: May 5, 2015 at 8:57 AM


Visibility: 10 mi

Pressure: 29.94 "Hg

Humidity: 79%

Dew point: 70 °F

Location of Corpus ChristiLocation

Historic Weather in Corpus Christi — Graph

°F

Corpus Christi temperature yesterday

Maximum temperature yesterday: 82 °F (at 1:51 PM)
Minimum temperature yesterday: 72 °F (at 5:51 AM)
Average temperature yesterday: 77 °F

Past Weeks' High & Low Weather Summary

 TemperatureHumidityPressure
High89 °F (Apr 27, 4:51 PM)97% (Apr 22, 1:51 PM)30.12 "Hg (Apr 22, 1:51 PM)
Low55 °F (Apr 29, 6:51 AM)32% (Apr 30, 3:51 PM)29.47 "Hg (Apr 27, 3:51 AM)
Average73 °F76%29.89 "Hg
* Reported Apr 20 7:51 AM — May 5 7:51 AM, Corpus Christi, Weather by CustomWeather, © 2015

Note: Actual official high and low records may vary slightly from our data, if they occured in-between our weather recording intervals... More about our weather records

Advertising

Corpus Christi weather history for previous 24 hours

 ConditionsComfort  
Time TempWeatherWind HumidityBarometerVisibility
7:51 AM
Tue, May 5
74 °FMostly cloudy.16 mph85%29.92 "Hg10 mi
6:51 AM74 °FOvercast.17 mph85%29.92 "Hg10 mi
5:51 AM74 °FPartly cloudy.16 mph85%29.92 "Hg10 mi
4:51 AM73 °FPassing clouds.14 mph90%29.92 "Hg10 mi
3:51 AM73 °FPassing clouds.15 mph88%29.92 "Hg10 mi
2:51 AM73 °FPassing clouds.12 mph88%29.93 "Hg10 mi
1:51 AM73 °FPassing clouds.12 mph88%29.96 "Hg10 mi
12:51 AM74 °FPassing clouds.14 mph85%29.98 "Hg10 mi
11:51 PM
Mon, May 4
75 °FPassing clouds.17 mph82%29.99 "Hg10 mi
10:51 PM75 °FPassing clouds.20 mph79%30.00 "Hg10 mi
9:58 PM75 °FPartly cloudy.23 mph79%30.00 "Hg10 mi
8:51 PM76 °FBroken clouds.17 mph77%29.98 "Hg10 mi
7:51 PM76 °FPartly sunny.18 mph74%29.97 "Hg10 mi
6:51 PM78 °FBroken clouds.22 mph69%29.97 "Hg10 mi
5:51 PM80 °FBroken clouds.22 mph64%29.97 "Hg10 mi
4:51 PM80 °FBroken clouds.20 mph67%29.98 "Hg10 mi
3:51 PM81 °FBroken clouds.20 mph62%30.00 "Hg10 mi
2:51 PM81 °FBroken clouds.22 mph62%30.01 "Hg10 mi
1:51 PM82 °FBroken clouds.20 mph58%30.03 "Hg10 mi
12:51 PM81 °FBroken clouds.18 mph62%30.04 "Hg10 mi
11:51 AM80 °FBroken clouds.20 mph62%30.04 "Hg10 mi
10:51 AM80 °FPartly sunny.18 mph64%30.03 "Hg10 mi
9:51 AM78 °FBroken clouds.18 mph71%30.02 "Hg10 mi
Weather by CustomWeather, © 2015

See weather overviewHow to use our weather pages